User: anonymous   Login
Location: Unspecified
(0.0000°N, 0.0000°E)
Time: 10:34:44
(UTC+00:00)
Language:

DSP F16 - Orbit

View from above orbital plane
View from above orbital plane
View from above satellite
View from above satellite

Ground track
Ground track

The orbit data is extracted from the following two-line orbital elements,

1 21805U 91080B   18190.79775631 0.00000000  00000-0  00000-0 0    01
2 21805  15.1630   9.2029 0005681 344.3241  15.6703  0.99202665    08
Epoch (UTC): 09 July 2018 19:08:46
Eccentricity: 0.0005681
inclination: 15.1630°
perigee height: 36064 km
apogee height: 36113 km
right ascension of ascending node: 9.2029°
argument of perigee: 344.3241°
revolutions per day: 0.99202665
mean anomaly at epoch: 15.6703°
orbit number at epoch: 0

The dashed part of the orbit path shows where the satellite is in the earth's shadow,  

DLR